TimeEST,TemperatureF,Dew PointF,Humidity,Sea Level PressureIn,VisibilityMPH,Wind Direction,Wind SpeedMPH,Gust SpeedMPH,PrecipitationIn,Events,Conditions,WindDirDegrees,DateUTC
12:53 AM,44.1,24.1,45,30.43,10.0,NNE,4.6,-,N/A,,Partly Cloudy,30,2012-11-18 05:53:00
1:08 AM,44.6,24.8,46,30.46,10.0,NE,5.8,-,N/A,,Mostly Cloudy,40,2012-11-18 06:08:00
1:53 AM,44.1,26.1,49,30.43,10.0,NNE,5.8,-,N/A,,Overcast,20,2012-11-18 06:53:00
2:53 AM,44.1,27.0,51,30.43,10.0,North,6.9,-,N/A,,Overcast,360,2012-11-18 07:53:00
3:53 AM,44.1,28.0,53,30.42,10.0,North,4.6,-,N/A,,Overcast,350,2012-11-18 08:53:00
4:53 AM,45.0,28.9,53,30.44,10.0,North,6.9,-,N/A,,Overcast,10,2012-11-18 09:53:00
5:53 AM,45.0,30.0,56,30.45,10.0,North,6.9,-,N/A,,Overcast,360,2012-11-18 10:53:00
6:53 AM,45.0,32.0,60,30.44,10.0,North,6.9,-,N/A,,Overcast,360,2012-11-18 11:53:00
7:53 AM,46.0,34.0,63,30.45,10.0,North,4.6,-,N/A,,Overcast,10,2012-11-18 12:53:00
8:53 AM,48.0,36.0,63,30.45,10.0,NNE,8.1,-,N/A,,Overcast,20,2012-11-18 13:53:00
9:53 AM,50.0,39.0,66,30.45,10.0,NNE,12.7,18.4,N/A,,Overcast,30,2012-11-18 14:53:00
10:53 AM,52.0,39.9,63,30.43,10.0,NE,10.4,-,N/A,,Overcast,50,2012-11-18 15:53:00
11:37 AM,55.4,39.2,54,30.44,10.0,ENE,9.2,18.4,N/A,,Overcast,60,2012-11-18 16:37:00
11:53 AM,55.9,39.9,55,30.41,10.0,NNE,12.7,-,N/A,,Overcast,20,2012-11-18 16:53:00
12:53 PM,55.0,39.0,55,30.38,10.0,NNE,11.5,17.3,N/A,,Overcast,20,2012-11-18 17:53:00
1:53 PM,55.9,39.0,53,30.36,10.0,NE,8.1,-,N/A,,Overcast,40,2012-11-18 18:53:00
2:53 PM,55.9,39.0,53,30.35,10.0,NNE,8.1,-,N/A,,Mostly Cloudy,30,2012-11-18 19:53:00
3:53 PM,55.9,39.0,53,30.34,10.0,NNE,5.8,-,N/A,,Clear,30,2012-11-18 20:53:00
4:53 PM,55.0,37.9,53,30.35,10.0,NE,8.1,-,N/A,,Clear,50,2012-11-18 21:53:00
5:53 PM,52.0,37.9,59,30.35,10.0,NE,3.5,-,N/A,,Partly Cloudy,40,2012-11-18 22:53:00
6:53 PM,50.0,37.9,63,30.36,10.0,NNE,5.8,-,N/A,,Clear,30,2012-11-18 23:53:00
7:53 PM,48.9,37.9,66,30.37,10.0,North,5.8,-,N/A,,Mostly Cloudy,10,2012-11-19 00:53:00
8:53 PM,50.0,37.9,63,30.37,10.0,NNE,6.9,-,N/A,,Overcast,20,2012-11-19 01:53:00
9:53 PM,51.1,36.0,56,30.37,10.0,NNE,11.5,20.7,N/A,,Overcast,30,2012-11-19 02:53:00
10:53 PM,50.0,37.0,61,30.35,10.0,NNE,8.1,-,N/A,,Overcast,30,2012-11-19 03:53:00
11:53 PM,48.9,37.0,64,30.35,10.0,North,5.8,-,N/A,,Mostly Cloudy,350,2012-11-19 04:53:00